Weather History for Lanai City, HI

Change the Weather History Date:

Tuesday, January 29, 2013

  Actual Average Record
Temperature  
Mean Temperature 68 °F -  
Max Temperature 74 °F 77 °F 81 °F (2011)
Min Temperature 63 °F 60 °F 52 °F (1955)
Cooling Degree Days 4    
Growing Degree Days 18 (Base 50)    
Moisture  
Dew Point 65 °F    
Average Humidity 90    
Maximum Humidity 100    
Minimum Humidity 71    
Precipitation  
Precipitation 0.09 in - - ()
Sea Level Pressure  
Sea Level Pressure 30.01 in    
Wind  
Wind Speed 5 mph (ESE)    
Max Wind Speed 10 mph    
Max Gust Speed -    
Visibility 7 miles    
Events Fog , Rain    
Averages and records for this station are not official NWS values.
T = Trace of Precipitation, MM = Missing Value Source: NWS Daily Summary

Daily Weather History Graph

Daily Weather History Graph

Search for Another Location

Airport:

Trip Planner

Search our weather history database for the weather conditions in past years. The results will help you decide how hot, cold, wet, or windy it might be!

Date:

Astronomy

Jan. 29, 2013 Rise Set
Actual Time 7:05 AM HST 6:17 PM HST
Civil Twilight 6:41 AM HST 6:40 PM HST
Nautical Twilight 6:15 AM HST 7:07 PM HST
Astronomical Twilight 5:48 AM HST 7:33 PM HST
Moon 8:53 PM HST (1/29) 8:35 AM HST (1/29)
Length of Visible Light 11h 58m
Length of Day
11h 12m
Waning Gibbous, 92% of the Moon is Illuminated
Jan 29
Waning Gibbous
Feb 3
Last Quarter
Feb 9
New
Feb 17
First Quarter
Feb 25
Full

Hourly Weather History & Observations

Time (HST) Temp. Dew Point Humidity Pressure Visibility Wind Dir Wind Speed Gust Speed Precip Events Conditions
12:56 AM 64.9 °F 63.0 °F 93% 29.96 in 10.0 mi East 4.6 mph - N/A   Clear
1:56 AM 63.9 °F 61.9 °F 93% 29.96 in 10.0 mi East 3.5 mph - N/A   Clear
2:56 AM 63.0 °F 61.9 °F 96% 29.95 in 10.0 mi ENE 3.5 mph - N/A   Scattered Clouds
3:56 AM 63.9 °F 63.0 °F 97% 29.94 in 10.0 mi Calm Calm - N/A   Mostly Cloudy
4:05 AM 64.4 °F 62.6 °F 94% 29.99 in 10.0 mi ENE 3.5 mph - N/A   Mostly Cloudy
4:18 AM 64.4 °F 62.6 °F 94% 29.98 in 10.0 mi ENE 4.6 mph - N/A   Mostly Cloudy
4:56 AM 63.0 °F 61.9 °F 96% 29.94 in 10.0 mi ENE 5.8 mph - N/A   Partly Cloudy
5:56 AM 64.9 °F 63.9 °F 96% 29.96 in 10.0 mi ENE 4.6 mph - N/A   Partly Cloudy
6:56 AM 63.9 °F 63.9 °F 100% 29.97 in 10.0 mi ENE 3.5 mph - N/A   Mostly Cloudy
7:48 AM 66.2 °F 66.2 °F 100% 30.03 in 10.0 mi Calm Calm - N/A   Overcast
7:56 AM 66.2 °F 66.2 °F 100% 30.03 in 10.0 mi Calm Calm - N/A   Overcast
8:06 AM 66.2 °F 66.2 °F 100% 30.03 in 10.0 mi Calm Calm - N/A   Overcast
8:14 AM 66.2 °F 66.2 °F 100% 30.03 in 10.0 mi Calm Calm - N/A   Mostly Cloudy
8:47 AM 69.8 °F 66.2 °F 88% 30.04 in 2.5 mi West 5.8 mph - 0.01 in Rain Rain
8:56 AM 68.0 °F 65.8 °F 93% 30.00 in 2.5 mi WNW 4.6 mph - 0.03 in Rain Light Rain
9:04 AM 68.0 °F 66.2 °F 94% 30.04 in 10.0 mi Calm Calm - 0.00 in Rain Light Rain
9:56 AM 68.9 °F 65.8 °F 90% 30.01 in 3.0 mi SW 4.6 mph - 0.01 in Rain Light Rain
10:36 AM 69.8 °F 66.2 °F 88% 30.06 in 1.8 mi SSE 10.4 mph - 0.00 in   Overcast
10:38 AM 68.0 °F 64.4 °F 88% 30.06 in 0.8 mi SSE 8.1 mph - 0.05 in Rain Light Rain
10:40 AM 68.0 °F 64.4 °F 88% 30.06 in 0.5 mi SE 8.1 mph - 0.06 in Fog , Rain Heavy Rain
10:47 AM 66.2 °F 64.4 °F 94% 30.06 in 0.2 mi Calm Calm - 0.07 in Fog , Rain Light Rain
10:56 AM 66.2 °F 66.2 °F 100% 30.05 in 0.2 mi South 6.9 mph - N/A Fog , Rain Light Rain
11:06 AM 69.8 °F 68.0 °F 94% 30.05 in 1.0 mi South 10.4 mph - 0.01 in Rain Light Rain
11:08 AM 69.8 °F 68.0 °F 94% 30.05 in 2.5 mi South 8.1 mph - 0.01 in Rain Light Rain
11:15 AM 69.8 °F 68.0 °F 94% 30.05 in 10.0 mi South 8.1 mph - 0.01 in Rain Light Rain
11:33 AM 69.8 °F 66.2 °F 88% 30.04 in 10.0 mi Variable 4.6 mph - 0.01 in   Mostly Cloudy
11:56 AM 68.9 °F 65.8 °F 90% 29.99 in 3.0 mi ENE 3.5 mph - 0.02 in Rain Rain
12:12 PM 69.8 °F 66.2 °F 88% 30.03 in 3.0 mi SSW 9.2 mph - 0.00 in Rain Light Rain
12:22 PM 69.8 °F 66.2 °F 88% 30.03 in 10.0 mi SW 8.1 mph - 0.00 in Rain Light Rain
12:56 PM 70.9 °F 68.0 °F 91% 29.97 in 10.0 mi WSW 6.9 mph - 0.00 in   Overcast
1:14 PM 71.6 °F 66.2 °F 83% 30.01 in 10.0 mi West 8.1 mph - 0.00 in   Mostly Cloudy
1:41 PM 71.6 °F 66.2 °F 83% 30.00 in 10.0 mi WNW 8.1 mph - 0.00 in   Mostly Cloudy
1:56 PM 70.9 °F 66.9 °F 87% 29.96 in 10.0 mi WNW 8.1 mph - 0.00 in   Overcast
2:24 PM 73.4 °F 66.2 °F 78% 30.00 in 10.0 mi West 6.9 mph - N/A   Mostly Cloudy
2:27 PM 73.4 °F 64.4 °F 73% 29.99 in 10.0 mi West 6.9 mph - N/A   Mostly Cloudy
2:45 PM 73.4 °F 66.2 °F 78% 29.99 in 10.0 mi WNW 6.9 mph - N/A   Scattered Clouds
2:56 PM 74.8 °F 64.9 °F 71% 29.94 in 10.0 mi Variable 4.6 mph - N/A   Partly Cloudy
3:26 PM 71.6 °F 64.4 °F 78% 29.99 in 10.0 mi SSE 6.9 mph - N/A   Mostly Cloudy
3:37 PM 69.8 °F 64.4 °F 83% 29.99 in 10.0 mi SE 9.2 mph - N/A   Mostly Cloudy
3:56 PM 68.9 °F 65.8 °F 90% 29.95 in 5.0 mi East 5.8 mph - 0.00 in Rain Light Rain
4:07 PM 69.8 °F 66.2 °F 88% 29.99 in 2.5 mi East 5.8 mph - 0.00 in Rain Light Rain
4:16 PM 69.8 °F 66.2 °F 88% 30.00 in 10.0 mi East 5.8 mph - 0.00 in   Overcast
4:37 PM 69.8 °F 66.2 °F 88% 30.00 in 10.0 mi East 9.2 mph - 0.00 in   Scattered Clouds
4:56 PM 68.9 °F 65.8 °F 90% 29.96 in 10.0 mi East 5.8 mph - 0.00 in   Partly Cloudy
5:56 PM 68.9 °F 64.9 °F 87% 29.98 in 10.0 mi East 3.5 mph - N/A   Mostly Cloudy
6:09 PM 69.8 °F 64.4 °F 83% 30.03 in 10.0 mi Calm Calm - N/A   Mostly Cloudy
6:25 PM 68.0 °F 66.2 °F 94% 30.03 in 3.0 mi NNW 4.6 mph - 0.01 in Rain Rain
6:56 PM 66.9 °F 64.9 °F 93% 30.00 in 2.0 mi Calm Calm - 0.02 in Rain Rain
7:03 PM 66.2 °F 64.4 °F 94% 30.04 in 1.5 mi NNW 3.5 mph - 0.01 in Rain Rain
7:27 PM 66.2 °F 64.4 °F 94% 30.05 in 2.5 mi ESE 5.8 mph - 0.03 in Rain Light Rain
7:31 PM 64.4 °F 64.4 °F 100% 30.05 in 3.0 mi ESE 5.8 mph - 0.03 in Rain Rain
7:43 PM 66.2 °F 64.4 °F 94% 30.05 in 10.0 mi ESE 8.1 mph - 0.03 in Rain Light Rain
7:56 PM 66.2 °F 64.4 °F 94% 30.05 in 10.0 mi East 8.1 mph - N/A Rain Light Rain
8:56 PM 65.8 °F 64.9 °F 97% 30.02 in 10.0 mi East 4.6 mph - 0.00 in   Mostly Cloudy
9:56 PM 66.9 °F 61.0 °F 81% 30.03 in 10.0 mi Calm Calm - 0.01 in   Clear
10:56 PM 66.9 °F 61.9 °F 84% 30.03 in 10.0 mi Calm Calm - N/A   Scattered Clouds
11:56 PM 64.9 °F 61.9 °F 90% 30.03 in 10.0 mi South 3.5 mph - N/A   Clear